TimeEDT,TemperatureF,Dew PointF,Humidity,Sea Level PressureIn,VisibilityMPH,Wind Direction,Wind SpeedMPH,Gust SpeedMPH,PrecipitationIn,Events,Conditions,WindDirDegrees,DateUTC
12:53 AM,57.9,54.0,87,29.99,10.0,SW,3.5,-,N/A,,Clear,220,2011-10-27 04:53:00
1:53 AM,57.0,54.0,89,29.99,10.0,Calm,Calm,-,N/A,,Clear,0,2011-10-27 05:53:00
2:53 AM,54.0,53.1,97,29.98,8.0,Calm,Calm,-,N/A,,Clear,0,2011-10-27 06:53:00
4:53 AM,55.9,54.0,93,29.96,9.0,SW,3.5,-,N/A,,Clear,220,2011-10-27 08:53:00
5:53 AM,54.0,52.0,93,29.96,7.0,Calm,Calm,-,N/A,,Partly Cloudy,0,2011-10-27 09:53:00
6:53 AM,54.0,52.0,93,29.96,4.0,Calm,Calm,-,N/A,,Partly Cloudy,0,2011-10-27 10:53:00
7:06 AM,53.6,51.8,94,29.96,1.5,Calm,Calm,-,N/A,,Clear,0,2011-10-27 11:06:00
7:17 AM,51.8,51.8,100,29.95,0.5,Calm,Calm,-,N/A,Fog,Fog,0,2011-10-27 11:17:00
7:27 AM,51.8,51.8,100,29.95,1.8,Calm,Calm,-,N/A,,Clear,0,2011-10-27 11:27:00
7:34 AM,53.6,51.8,94,29.95,1.5,Calm,Calm,-,N/A,,Clear,0,2011-10-27 11:34:00
7:51 AM,53.6,51.8,94,29.96,2.0,Calm,Calm,-,N/A,,Clear,0,2011-10-27 11:51:00
8:53 AM,59.0,55.9,90,29.96,8.0,SW,3.5,-,N/A,,Mostly Cloudy,230,2011-10-27 12:53:00
9:53 AM,66.0,57.9,75,29.96,10.0,SW,5.8,-,N/A,,Mostly Cloudy,230,2011-10-27 13:53:00
10:53 AM,73.0,55.0,53,29.95,10.0,West,11.5,-,N/A,,Partly Cloudy,260,2011-10-27 14:53:00
11:53 AM,75.9,52.0,43,29.94,10.0,WSW,16.1,20.7,N/A,,Clear,250,2011-10-27 15:53:00
12:53 PM,79.0,52.0,39,29.91,10.0,WSW,13.8,23.0,N/A,,Mostly Cloudy,250,2011-10-27 16:53:00
1:53 PM,79.0,52.0,39,29.88,10.0,West,12.7,19.6,N/A,,Overcast,260,2011-10-27 17:53:00
2:53 PM,79.0,51.1,38,29.86,10.0,WSW,17.3,24.2,N/A,,Scattered Clouds,240,2011-10-27 18:53:00
3:53 PM,79.0,52.0,39,29.86,10.0,West,15.0,19.6,N/A,,Scattered Clouds,260,2011-10-27 19:53:00
4:53 PM,78.1,52.0,40,29.86,10.0,WNW,11.5,-,N/A,,Clear,290,2011-10-27 20:53:00
5:53 PM,75.0,52.0,44,29.86,10.0,West,9.2,-,N/A,,Clear,260,2011-10-27 21:53:00
6:53 PM,66.9,54.0,63,29.87,10.0,Calm,Calm,-,N/A,,Clear,0,2011-10-27 22:53:00
7:53 PM,63.0,55.0,75,29.89,10.0,WSW,3.5,-,N/A,,Clear,250,2011-10-27 23:53:00
8:53 PM,63.0,54.0,72,29.89,10.0,SW,4.6,-,N/A,,Clear,220,2011-10-28 00:53:00
9:53 PM,61.0,53.1,75,29.90,10.0,Calm,Calm,-,N/A,,Clear,0,2011-10-28 01:53:00
10:53 PM,57.0,54.0,89,29.91,10.0,Calm,Calm,-,N/A,,Clear,0,2011-10-28 02:53:00
11:53 PM,57.0,54.0,89,29.91,10.0,Calm,Calm,-,N/A,,Clear,0,2011-10-28 03:53:00